TimeCDT,TemperatureF,Dew PointF,Humidity,Sea Level PressureIn,VisibilityMPH,Wind Direction,Wind SpeedMPH,Gust SpeedMPH,PrecipitationIn,Events,Conditions,WindDirDegrees,DateUTC
12:53 AM,46.9,32.0,56,30.31,10.0,NNE,9.2,-,N/A,,Overcast,20,2012-10-07 05:53:00
1:53 AM,46.9,30.0,52,30.31,10.0,NNE,11.5,-,N/A,,Overcast,30,2012-10-07 06:53:00
2:53 AM,46.0,30.9,56,30.30,10.0,NNE,10.4,-,N/A,,Overcast,30,2012-10-07 07:53:00
3:53 AM,45.0,32.0,60,30.29,10.0,NE,11.5,-,N/A,,Overcast,40,2012-10-07 08:53:00
4:53 AM,45.0,30.9,58,30.27,10.0,NE,16.1,-,N/A,,Overcast,50,2012-10-07 09:53:00
5:53 AM,43.0,35.1,74,30.31,9.0,NE,5.8,-,0.01,Rain,Light Rain,40,2012-10-07 10:53:00
7:53 AM,43.0,35.1,74,30.31,10.0,NNE,5.8,-,0.00,,Clear,20,2012-10-07 12:53:00
8:53 AM,44.1,34.0,68,30.34,10.0,NNE,9.2,-,N/A,,Scattered Clouds,30,2012-10-07 13:53:00
9:53 AM,45.0,33.1,63,30.33,10.0,ENE,8.1,-,N/A,,Partly Cloudy,70,2012-10-07 14:53:00
10:53 AM,48.0,30.9,52,30.32,10.0,East,8.1,-,N/A,,Mostly Cloudy,100,2012-10-07 15:53:00
11:53 AM,50.0,28.9,44,30.31,10.0,East,3.5,-,N/A,,Overcast,90,2012-10-07 16:53:00
12:53 PM,52.0,28.0,40,30.28,10.0,ENE,6.9,-,N/A,,Overcast,70,2012-10-07 17:53:00
1:53 PM,53.1,28.0,38,30.26,10.0,Variable,6.9,-,N/A,,Overcast,0,2012-10-07 18:53:00
2:53 PM,54.0,27.0,35,30.22,10.0,Calm,Calm,-,N/A,,Overcast,0,2012-10-07 19:53:00
3:53 PM,53.1,26.1,35,30.22,10.0,NE,3.5,-,N/A,,Overcast,50,2012-10-07 20:53:00
4:53 PM,54.0,26.1,34,30.20,10.0,ENE,4.6,-,N/A,,Overcast,70,2012-10-07 21:53:00
5:53 PM,54.0,27.0,35,30.19,10.0,NE,5.8,-,N/A,,Overcast,50,2012-10-07 22:53:00
6:53 PM,52.0,28.9,41,30.19,10.0,NNE,9.2,-,N/A,,Scattered Clouds,20,2012-10-07 23:53:00
7:53 PM,50.0,28.9,44,30.21,10.0,NE,8.1,-,N/A,,Overcast,50,2012-10-08 00:53:00
8:53 PM,48.0,30.0,50,30.21,10.0,ENE,5.8,-,N/A,,Mostly Cloudy,70,2012-10-08 01:53:00
9:53 PM,45.0,30.0,56,30.23,10.0,East,5.8,-,N/A,,Clear,80,2012-10-08 02:53:00
10:53 PM,44.1,28.9,55,30.23,10.0,East,3.5,-,N/A,,Clear,80,2012-10-08 03:53:00
11:53 PM,44.1,28.9,55,30.22,10.0,East,3.5,-,N/A,,Clear,100,2012-10-08 04:53:00